Hourly Data Report for November 12, 2017

All times are specified in Local Standard Time (LST). Add 1 hour to adjust for Daylight Saving Time where and when it is observed.

DAUPHIN
MANITOBA

51°06'03.000" N
100°03'09.000" W
304.50 m
5040689
71036
YDN

Download Data

Hourly Data (November 2017)
Hourly Data Report for November 12, 2017
Temp Definition
°C
Dew Point Temp Definition
°C
Rel Hum Definition
%
Wind Dir Definition
10's deg

Wind Spd Definition
km/h
Visibility Definition
km
Stn Press Definition
kPa
Hmdx Definition


Wind Chill Definition


Weather Definition


TIME
00:00 Legend Double Dagger -4.8 -7.3 83 27 17 16.1 98.75   -11 Snow
01:00 Legend Double Dagger -4.9 -7.4 83 27 13 16.1 98.78   -10 LegendNANA
02:00 Legend Double Dagger -4.9 -7.4 83 27 13 16.1 98.78   -10 Snow
03:00 Legend Double Dagger -4.8 -7.9 79 28 17 16.1 98.78   -11 LegendNANA
04:00 Legend Double Dagger -4.8 -7.6 81 28 15 16.1 98.82   -10 Snow
05:00 Legend Double Dagger -4.8 -7.6 81 27 17 16.1 98.81   -11 LegendNANA
06:00 Legend Double Dagger -4.8 -7.9 79 27 18 16.1 98.86   -11 LegendNANA
07:00 Legend Double Dagger -4.8 -8.2 77 27 18 16.1 98.85   -11 LegendNANA
08:00 Legend Double Dagger -5.2 -8.2 80 28 15 16.1 98.87   -11 LegendNANA
09:00 Legend Double Dagger -5.6 -8.5 80 27 22 16.1 98.93   -13 LegendNANA
10:00 Legend Double Dagger -5.5 -8.2 82 27 17 16.1 98.93   -12 LegendNANA
11:00 Legend Double Dagger -5.4 -8.4 80 26 13 16.1 98.95   -11 LegendNANA
12:00 Legend Double Dagger -4.3 -7.6 78 28 18 16.1 98.98   -10 LegendNANA
13:00 Legend Double Dagger -3.4 -7.2 75 29 11 16.1 98.93   -8 LegendNANA
14:00 Legend Double Dagger -3.3 -7.8 71 LegendMM 4 16.1 98.90   -5 LegendNANA
15:00 Legend Double Dagger -4.8 -7.6 81 15 8 16.1 98.89   -8 LegendNANA
16:00 Legend Double Dagger -4.9 -7.7 81 19 5 16.1 98.88   -7 LegendNANA
17:00 Legend Double Dagger -6.2 -8.3 85 10 9 16.1 98.86   -10 LegendNANA
18:00 Legend Double Dagger -6.0 -8.9 80 13 11 16.1 98.86   -11 LegendNANA
19:00 Legend Double Dagger -6.0 -8.6 82 13 11 16.1 98.88   -11 LegendNANA
20:00 Legend Double Dagger -6.3 -8.9 82 12 9 16.1 98.88   -11 LegendNANA
21:00 Legend Double Dagger -6.7 -9.0 84 14 9 16.1 98.82   -11 LegendNANA
22:00 Legend Double Dagger -8.2 -9.6 90 24 4 16.1 98.83   -10 LegendNANA
23:00 Legend Double Dagger -6.4 -7.9 89 LegendMM 4 16.1 98.79   -8 LegendNANA

Notes on Data Quality.

Legend

  • E = Estimated
  • M = Missing
  • NA = Not Available
  • ‡ = Partner data that is not subject to review by the National Climate Archives
Date modified: